[[{"header":{"parameterUnit":"m.s-1","parameterCategory":1,"la1":30.2991,"la2":30.254,"lo1":-89.0895,"lo2":-89.0444,"dy":0.0017,"dx":0.0017,"nx":28,"ny":28,"refTime":"2025-04-12T03:00:00:Z","depth":0,"parameterNumber":2,"parameterNumberName":"U-component_of_WINDS"},"data":[0,0,0,0,0,0,0,0,0,0,0,0,0,0,0,0,0,0,0,0,0,0,0,0,0,0,0,0,0,0,0,0,0,0,0,0,0,0,0,0,0,0,0,0,0,0,0,0,0,0,0,0,0,0,0,0,0,0,-2.1392,-2.1394,0,-2.1503,-2.1504,-2.1506,-2.1545,-2.1545,-2.1544,-2.1544,-2.1657,-2.166,-2.1664,0,0,0,0,0,0,0,0,0,0,0,0,0,-2.1215,-2.1218,-2.1392,-2.1394,-2.1395,-2.1503,-2.1505,-2.1506,-2.1545,-2.1545,-2.1544,-2.1544,-2.1656,-2.166,-2.1664,0,0,0,0,0,0,0,0,0,0,0,0,0,-2.1305,-2.1219,-2.1392,-2.1428,-2.1432,-2.1503,-2.1505,-2.1506,-2.1545,-2.1545,-2.1544,-2.1543,-2.1655,-2.166,-2.1665,-2.1708,0,0,-2.168,-2.1682,0,0,0,0,0,0,0,0,-2.13,-2.1312,-2.1421,-2.1425,-2.143,-2.151,-2.1484,-2.1574,-2.1545,-2.1502,-2.1544,-2.1543,-2.1609,-2.1617,-2.1639,-2.1713,-2.1718,-2.1681,-2.1684,-2.1686,-2.1687,0,0,0,0,0,0,0,-2.1294,-2.1307,-2.1436,-2.1423,-2.1428,-2.1438,-2.145,-2.1501,-2.1557,-2.1506,-2.1509,-2.1522,-2.1611,-2.1634,-2.1642,-2.172,-2.168,-2.1685,-2.1688,-2.169,-2.1836,-2.1836,0,0,0,0,0,0,-2.1282,-2.1302,-2.1433,-2.144,-2.1362,-2.1442,-2.1455,-2.1485,-2.1557,-2.1567,-2.1522,-2.1523,-2.1626,-2.1636,-2.1647,-2.1702,-2.1686,-2.1691,-2.1693,-2.1835,-2.1836,-2.1837,0,0,0,0,0,0,-2.1278,-2.1293,-2.1428,-2.1372,-2.139,-2.1445,-2.1478,-2.1487,-2.1511,-2.1569,-2.1579,-2.1536,-2.1626,-2.1639,-2.1693,-2.1707,-2.1693,-2.1697,-2.1834,-2.1835,-2.1836,-2.1814,0,0,0,0,0,0,-2.1272,-2.1291,-2.1308,-2.1372,-2.1392,-2.1472,-2.1479,-2.149,-2.152,-2.1522,-2.1585,-2.1594,-2.1627,-2.1685,-2.1698,-2.1713,-2.1701,-2.1833,-2.1834,-2.1836,-2.1813,-2.1814,-2.1814,0,0,0,0,0,-2.1266,-2.1297,-2.1309,-2.1324,-2.1415,-2.1473,-2.1485,-2.1521,-2.152,-2.1538,-2.1576,-2.1592,-2.1703,-2.169,-2.1705,-2.1722,-2.1832,-2.1834,-2.1836,-2.1813,-2.1814,-2.1814,0,0,0,0,0,0,-2.1234,-2.1306,-2.132,-2.1373,-2.1416,-2.1479,-2.1502,-2.1521,-2.1565,-2.1566,-2.1609,-2.1623,-2.1673,-2.1703,-2.1687,-2.1768,-2.1769,-2.1774,-2.1746,-2.1748,-2.1748,-2.1739,-2.1706,0,0,0,0,0,-2.1233,-2.1274,-2.1335,-2.1376,-2.1397,-2.1446,-2.1473,-2.1497,-2.1544,-2.1563,-2.1604,-2.1649,-2.1694,-2.1723,-2.1767,-2.1818,-2.1833,-2.1838,-2.1838,-2.1839,-2.1842,-2.1871,-2.1874,-2.1843,-2.1843,-2.1843,0,0,-2.1231,-2.1276,-2.1299,-2.137,-2.1407,-2.1449,-2.1461,-2.1505,-2.1536,-2.1569,-2.1622,-2.1654,-2.1707,-2.1759,-2.1785,-2.1786,-2.1854,-2.1841,-2.1841,-2.1844,-2.1874,-2.1876,-2.1879,-2.1844,-2.1844,-2.1844,0,0,-2.1249,-2.1287,-2.1325,-2.1362,-2.1418,-2.145,-2.1459,-2.152,-2.1543,-2.1597,-2.1622,-2.1661,-2.1737,-2.1774,-2.1803,-2.1836,-2.1853,-2.1849,-2.1852,-2.188,-2.1882,-2.1885,-2.1896,-2.19,-2.1853,-2.1853,-2.1853,0,-2.124,-2.1304,-2.1343,-2.1385,-2.1416,-2.1448,-2.1487,-2.1521,-2.1588,-2.1609,-2.161,-2.1707,-2.1745,-2.1806,-2.1815,-2.1837,-2.1849,-2.1842,-2.1879,-2.1882,-2.1884,-2.1896,-2.19,-2.1852,-2.1852,-2.1852,-2.1852,0,-2.129,-2.1333,-2.1358,-2.1422,-2.1456,-2.1496,-2.1541,-2.157,-2.1592,-2.1625,-2.1679,-2.1726,-2.1781,-2.1798,-2.1819,-2.1862,-2.1862,-2.187,-2.1871,-2.1886,-2.1897,-2.1902,-2.1851,-2.1851,-2.1851,-2.1851,0,0,-2.1289,-2.1375,-2.1383,-2.1413,-2.1477,-2.1512,-2.1554,-2.1608,-2.1632,-2.1678,-2.1714,-2.1779,-2.1788,-2.182,-2.1846,-2.1871,-2.1894,-2.1877,-2.1879,-2.1878,-2.1945,-2.1937,-2.1941,-2.1907,-2.1908,-2.1908,-2.194,0,-2.1315,-2.1392,-2.1428,-2.1489,-2.153,-2.1562,-2.1599,-2.1642,-2.1674,-2.1714,-2.1749,-2.1794,-2.1802,-2.1822,-2.1848,-2.1886,-2.1908,-2.1884,-2.194,-2.1942,-2.1925,-2.1948,-2.194,-2.1967,-2.1945,-2.1945,-2.1946,0,-2.1356,-2.1401,-2.1465,-2.1525,-2.1544,-2.1576,-2.1629,-2.1666,-2.1717,-2.1738,-2.1775,-2.18,-2.1846,-2.1845,-2.1909,-2.1891,-2.1917,-2.1939,-2.1941,-2.1947,-2.1944,-2.1953,-2.1977,-2.198,-2.1954,-2.1953,-2.1952,0,-2.1348,-2.1426,-2.1475,-2.1499,-2.157,-2.1592,-2.1623,-2.1672,-2.1703,-2.1749,-2.1769,-2.182,-2.1847,-2.1886,-2.1925,-2.192,-2.1985,-2.1987,-2.2004,-2.2003,-2.2015,-2.2013,-2.2042,-2.2033,-2.2033,-2.2032,-2.2032,0,-2.1373,-2.1411,-2.1472,-2.1502,-2.1546,-2.1588,-2.163,-2.1663,-2.1707,-2.1744,-2.1775,-2.1809,-2.1859,-2.1899,-2.193,-2.1978,-2.1991,-2.2009,-2.2017,-2.2006,-2.2003,-2.2022,-2.2021,-2.2034,-2.2033,-2.2033,-2.2033,0,-2.1371,-2.1414,-2.1469,-2.1532,-2.1549,-2.1578,-2.1633,-2.1663,-2.1697,-2.1743,-2.1756,-2.1809,-2.1858,-2.1901,-2.1966,-2.1987,-2.2036,-2.2046,-2.2019,-2.2023,-2.2037,-2.2035,-2.2078,-2.2086,-2.2072,-2.2072,-2.2072,0,-2.1384,-2.1414,-2.148,-2.1507,-2.1538,-2.1581,-2.1612,-2.1655,-2.1686,-2.1746,-2.1769,-2.1821,-2.1864,-2.1941,-2.1985,-2.2036,-2.2046,-2.2058,-2.2054,-2.2042,-2.2046,-2.2043,-2.2046,-2.2058,-2.2058,-2.2057,-2.2057,0,-2.1402,-2.1421,-2.1465,-2.1516,-2.1552,-2.1595,-2.1638,-2.1658,-2.171,-2.1743,-2.1794,-2.1827,-2.1894,-2.1945,-2.2,-2.2032,-2.2053,-2.2059,-2.2065,-2.2054,-2.2037,-2.2046,-2.2018,-2.2057,-2.2057,-2.2057,-2.2057,-2.2057,-2.1407,-2.1436,-2.1487,-2.1534,-2.1572,-2.1611,-2.1643,-2.1681,-2.1724,-2.1781,-2.1805,-2.1856,-2.1907,-2.1983,-2.2015,-2.2056,-2.2059,-2.2069,-2.2071,-2.2073,-2.2071,-2.2031,-2.2066,-2.2066,-2.2066,-2.2066,-2.2066,0,-2.1426,-2.1461,-2.1504,-2.1564,-2.1601,-2.1619,-2.1668,-2.1698,-2.1743,-2.1788,-2.183,-2.1889,-2.1938,-2.1987,-2.2039,-2.2063,-2.2074,-2.2075,-2.2073,-2.208,-2.2065,-2.2054,-2.2065,-2.2065,-2.2065,-2.2065,-2.2065,-2.2065,-2.144,-2.1489,-2.1515,-2.1582,-2.1617,-2.1668,-2.1694,-2.1731,-2.1768,-2.1831,-2.1873,-2.1904,-2.1951,-2.2007,-2.2053,-2.2066,-2.2084,-2.2082,-2.2098,-2.2082,-2.2081,-2.2081,-2.2071,-2.2086,-2.2086,-2.211,-2.211,-2.211]},{"header":{"parameterUnit":"m.s-1","parameterCategory":1,"la1":30.2991,"la2":30.254,"lo1":-89.0895,"lo2":-89.0444,"dy":0.0017,"dx":0.0017,"nx":28,"ny":28,"refTime":"2025-04-12T03:00:00:Z","depth":0,"parameterNumber":3,"parameterNumberName":"V-component_of_WINDS"},"data":[0,0,0,0,0,0,0,0,0,0,0,0,0,0,0,0,0,0,0,0,0,0,0,0,0,0,0,0,0,0,0,0,0,0,0,0,0,0,0,0,0,0,0,0,0,0,0,0,0,0,0,0,0,0,0,0,0,0,2.9742,2.9742,0,2.974,2.974,2.974,2.9747,2.9748,2.9748,2.9748,2.9743,2.9742,2.9742,0,0,0,0,0,0,0,0,0,0,0,0,0,2.9752,2.9752,2.9742,2.9742,2.9742,2.974,2.974,2.974,2.9747,2.9748,2.9748,2.9748,2.9743,2.9742,2.9742,0,0,0,0,0,0,0,0,0,0,0,0,0,2.9748,2.9752,2.9742,2.9746,2.9746,2.974,2.974,2.974,2.9747,2.9748,2.9748,2.9748,2.9743,2.9742,2.9742,2.9731,0,0,2.974,2.974,0,0,0,0,0,0,0,0,2.9748,2.9748,2.9745,2.9746,2.9746,2.9744,2.9741,2.9737,2.9747,2.9747,2.9748,2.9748,2.9743,2.9742,2.9741,2.9731,2.973,2.974,2.974,2.9739,2.9739,0,0,0,0,0,0,0,2.9749,2.9748,2.9741,2.9745,2.9746,2.9747,2.9747,2.974,2.9743,2.9747,2.9747,2.9747,2.9743,2.9741,2.9741,2.973,2.974,2.9739,2.9739,2.9739,2.9712,2.9712,0,0,0,0,0,0,2.9749,2.9748,2.9741,2.9741,2.9748,2.9746,2.9746,2.9744,2.9743,2.9743,2.9747,2.9747,2.9742,2.9741,2.974,2.9728,2.9739,2.9739,2.9739,2.9712,2.9712,2.9711,0,0,0,0,0,0,2.9749,2.9748,2.9741,2.9745,2.9744,2.9746,2.9744,2.9744,2.9743,2.9743,2.9743,2.9745,2.9742,2.9741,2.9734,2.9728,2.9739,2.9738,2.9713,2.9712,2.9712,2.9703,0,0,0,0,0,0,2.9749,2.9748,2.9744,2.9745,2.9744,2.9735,2.9743,2.9744,2.9742,2.9743,2.9741,2.9741,2.9742,2.9734,2.9733,2.9727,2.9738,2.9713,2.9713,2.9712,2.9704,2.9702,2.9701,0,0,0,0,0,2.975,2.9741,2.9744,2.9743,2.9739,2.9735,2.9734,2.9737,2.9741,2.9737,2.9738,2.9741,2.9729,2.9734,2.9732,2.9726,2.9714,2.9713,2.9712,2.9704,2.9703,2.9701,0,0,0,0,0,0,2.9739,2.9741,2.9745,2.9736,2.9735,2.9736,2.9731,2.9735,2.9732,2.9732,2.9735,2.9735,2.9726,2.9726,2.9731,2.9716,2.9722,2.9721,2.9717,2.9715,2.9714,2.9714,2.9737,0,0,0,0,0,2.9736,2.9733,2.9735,2.9727,2.9727,2.9729,2.9727,2.9729,2.9728,2.9727,2.9727,2.9725,2.9721,2.9718,2.9714,2.9704,2.9704,2.9699,2.9698,2.9697,2.9695,2.969,2.9688,2.9709,2.9709,2.9709,0,0,2.9729,2.973,2.9727,2.9725,2.9725,2.9721,2.9728,2.9724,2.9721,2.9726,2.972,2.9719,2.9717,2.9708,2.9705,2.9707,2.969,2.9696,2.9695,2.9694,2.9689,2.9687,2.9686,2.9708,2.9708,2.9708,0,0,2.9715,2.9715,2.9709,2.9709,2.9709,2.9711,2.9709,2.971,2.971,2.9703,2.9708,2.9704,2.9697,2.9695,2.9694,2.968,2.9683,2.9679,2.9671,2.9666,2.9664,2.9663,2.9658,2.9656,2.9678,2.9678,2.9678,0,2.9706,2.9701,2.9705,2.9701,2.97,2.9706,2.97,2.9699,2.9697,2.9696,2.97,2.9691,2.969,2.9682,2.9679,2.9677,2.9675,2.9678,2.9664,2.9663,2.9662,2.9657,2.9655,2.9677,2.9677,2.9677,2.9677,0,2.969,2.9686,2.9682,2.9681,2.9679,2.9674,2.9677,2.9675,2.9678,2.9679,2.9672,2.9672,2.9668,2.9666,2.9669,2.9658,2.966,2.9664,2.967,2.9659,2.9655,2.9653,2.9676,2.9676,2.9677,2.9677,0,0,2.9667,2.9671,2.9669,2.9669,2.967,2.9667,2.9662,2.9659,2.9657,2.9656,2.9652,2.9646,2.965,2.9648,2.9651,2.9646,2.9636,2.9651,2.9651,2.9648,2.9625,2.9621,2.9619,2.9638,2.9638,2.9638,2.9625,0,2.9653,2.9646,2.965,2.9642,2.9638,2.9645,2.9641,2.9641,2.9642,2.9639,2.964,2.9637,2.9642,2.9641,2.9637,2.9638,2.9631,2.9639,2.9634,2.9633,2.9634,2.9617,2.9613,2.9601,2.9623,2.9623,2.9623,0,2.9635,2.9635,2.9626,2.9629,2.9627,2.9623,2.9622,2.9619,2.9619,2.9621,2.9619,2.9623,2.9618,2.9625,2.9617,2.9623,2.9621,2.9621,2.9621,2.962,2.9627,2.9615,2.9597,2.9595,2.962,2.962,2.962,0,2.962,2.9617,2.9612,2.9611,2.9614,2.9611,2.9612,2.9612,2.9611,2.961,2.9609,2.9606,2.9605,2.9603,2.9606,2.961,2.9598,2.9605,2.9599,2.9599,2.9595,2.9595,2.9576,2.9595,2.9595,2.9595,2.9595,0,2.9603,2.9598,2.9605,2.9601,2.9595,2.9601,2.9595,2.9596,2.9597,2.9593,2.9599,2.9595,2.96,2.9597,2.9599,2.9593,2.9592,2.9592,2.9593,2.9592,2.9592,2.959,2.9591,2.9594,2.9594,2.9595,2.9595,0,2.9585,2.9589,2.9584,2.9587,2.9588,2.9583,2.9586,2.9583,2.9585,2.9581,2.958,2.9584,2.9581,2.9584,2.958,2.9582,2.9574,2.9575,2.9574,2.9574,2.9568,2.9568,2.9546,2.9544,2.9564,2.9564,2.9564,0,2.9573,2.957,2.9573,2.9572,2.9573,2.957,2.9569,2.9575,2.9573,2.9574,2.957,2.9568,2.9566,2.9561,2.9563,2.956,2.9562,2.9555,2.9562,2.9561,2.9562,2.9562,2.9561,2.9553,2.9553,2.9553,2.9552,0,2.9553,2.9556,2.9555,2.9555,2.9554,2.9554,2.9554,2.9552,2.9558,2.9556,2.9554,2.9552,2.955,2.9547,2.9546,2.9546,2.955,2.9551,2.9549,2.9547,2.9546,2.9547,2.957,2.9551,2.9551,2.9551,2.9551,2.9551,2.9538,2.9535,2.9537,2.9536,2.9537,2.9537,2.9535,2.9538,2.9536,2.9535,2.9538,2.9535,2.9536,2.9534,2.9534,2.9531,2.9534,2.9532,2.9531,2.953,2.953,2.9548,2.9531,2.9531,2.9531,2.9531,2.9531,0,2.9518,2.952,2.9519,2.952,2.9519,2.9524,2.9525,2.9523,2.9521,2.9522,2.952,2.9518,2.9516,2.9518,2.9516,2.9514,2.9515,2.9513,2.9513,2.9513,2.9527,2.9529,2.9512,2.9512,2.9512,2.9512,2.9512,2.9512,2.9507,2.9503,2.9506,2.9502,2.9504,2.9502,2.9502,2.9502,2.9503,2.95,2.9499,2.9501,2.9502,2.9501,2.9499,2.95,2.9499,2.9496,2.9497,2.951,2.9512,2.9514,2.9515,2.9496,2.9496,2.9483,2.9483,2.9483]}]]